SFR604 FACT-FAOR

Flight info

Callsign SFR604
Flight time 1h 46m
Altitude 35000
Route TETAN1A TETAN UZ2 NIBEX NIBEX1D
Aircraft B738/M-SDE2E3FGHIRWXY/LB1

Departure

Time 2026-05-07 18:31
Airport Cape Town International Airport (FACT)

Arrival

Time 2026-05-07 20:18
Airport O.R. Tambo International Airport (FAOR)
Time Latitude Longitude Altitude Speed Heading
2026-05-07 18:01 -33.97111 18.59876 153 ft 0 kts 256°
2026-05-07 18:23 -33.97110 18.59881 126 ft 3 kts 257°
2026-05-07 18:23 -33.97106 18.59905 153 ft 3 kts 265°
2026-05-07 18:23 -33.97106 18.59929 153 ft 3 kts 281°
2026-05-07 18:23 -33.97112 18.59950 153 ft 3 kts 315°
2026-05-07 18:24 -33.97124 18.59958 153 ft 1 kts
2026-05-07 18:24 -33.97129 18.59958 153 ft 0 kts
2026-05-07 18:26 -33.97128 18.59958 153 ft 0 kts
2026-05-07 18:26 -33.97116 18.59959 153 ft 4 kts
2026-05-07 18:27 -33.97081 18.59956 153 ft 6 kts 350°
2026-05-07 18:27 -33.97037 18.59944 153 ft 8 kts 346°
2026-05-07 18:27 -33.96972 18.59923 153 ft 12 kts 345°
2026-05-07 18:27 -33.96912 18.59903 153 ft 15 kts 345°
2026-05-07 18:28 -33.96753 18.59852 153 ft 20 kts 345°
2026-05-07 18:28 -33.96618 18.59808 153 ft 18 kts 345°
2026-05-07 18:28 -33.96495 18.59774 153 ft 18 kts 349°
2026-05-07 18:28 -33.96376 18.59751 153 ft 17 kts 351°
2026-05-07 18:29 -33.96267 18.59728 153 ft 13 kts 351°
2026-05-07 18:29 -33.96191 18.59771 152 ft 13 kts 45°
2026-05-07 18:29 -33.96129 18.59845 152 ft 12 kts 45°
2026-05-07 18:29 -33.96069 18.59918 153 ft 12 kts 45°
2026-05-07 18:30 -33.96029 18.59996 153 ft 9 kts 92°
2026-05-07 18:30 -33.96078 18.60036 153 ft 9 kts 166°
2026-05-07 18:30 -33.96146 18.60057 153 ft 18 kts 165°
2026-05-07 18:30 -33.96484 18.60164 156 ft 81 kts 165°
2026-05-07 18:31 -33.97217 18.60395 153 ft 134 kts 165°
2026-05-07 18:31 -33.98229 18.60702 368 ft 157 kts 168°
2026-05-07 18:31 -33.99285 18.60972 1026 ft 155 kts 169°
2026-05-07 18:31 -34.00335 18.61333 1607 ft 154 kts 159°
2026-05-07 18:32 -34.01372 18.61767 2098 ft 166 kts 159°
2026-05-07 18:32 -34.02547 18.62237 2324 ft 189 kts 160°
2026-05-07 18:32 -34.03856 18.62743 2482 ft 210 kts 161°
2026-05-07 18:32 -34.05306 18.63325 2619 ft 230 kts 154°
2026-05-07 18:33 -34.06570 18.64593 2911 ft 246 kts 126°
2026-05-07 18:33 -34.07463 18.66368 3546 ft 250 kts 120°
2026-05-07 18:33 -34.08277 18.68233 4268 ft 252 kts 118°
2026-05-07 18:33 -34.09085 18.70119 4976 ft 253 kts 118°
2026-05-07 18:34 -34.09903 18.72015 5546 ft 258 kts 119°
2026-05-07 18:34 -34.10748 18.73961 6130 ft 265 kts 120°
2026-05-07 18:34 -34.11613 18.75939 6745 ft 269 kts 119°
2026-05-07 18:34 -34.12491 18.77939 7400 ft 272 kts 119°
2026-05-07 18:35 -34.13381 18.79962 8119 ft 272 kts 120°
2026-05-07 18:35 -34.14277 18.81996 8776 ft 277 kts 119°
2026-05-07 18:35 -34.15189 18.84063 9489 ft 280 kts 120°
2026-05-07 18:35 -34.16110 18.86152 10197 ft 284 kts 120°
2026-05-07 18:36 -34.17040 18.88318 10542 ft 301 kts 115°
2026-05-07 18:36 -34.17420 18.90869 10692 ft 327 kts 87°
2026-05-07 18:36 -34.16767 18.93542 11139 ft 341 kts 62°
2026-05-07 18:36 -34.15289 18.95807 11740 ft 347 kts 44°
2026-05-07 18:37 -34.13434 18.97696 12451 ft 350 kts 38°
2026-05-07 18:37 -34.11476 18.99501 13111 ft 355 kts 37°
2026-05-07 18:37 -34.09478 19.01300 13780 ft 360 kts 37°
2026-05-07 18:37 -34.07456 19.03130 14422 ft 365 kts 37°
2026-05-07 18:38 -34.05425 19.04991 15065 ft 368 kts 37°
2026-05-07 18:38 -34.03400 19.06867 15723 ft 372 kts 38°
2026-05-07 18:38 -34.01341 19.08787 16378 ft 375 kts 38°
2026-05-07 18:38 -33.99968 19.10073 16789 ft 378 kts 38°
2026-05-07 18:39 -33.97880 19.12033 17442 ft 382 kts 38°
2026-05-07 18:39 -33.95768 19.14017 18065 ft 387 kts 38°
2026-05-07 18:39 -33.92928 19.16685 18843 ft 392 kts 38°
2026-05-07 18:39 -33.90770 19.18713 19403 ft 395 kts 38°
2026-05-07 18:40 -33.89324 19.20070 19790 ft 398 kts 37°
2026-05-07 18:40 -33.87133 19.22125 20337 ft 401 kts 37°
2026-05-07 18:40 -33.84913 19.24205 20865 ft 405 kts 37°
2026-05-07 18:40 -33.82676 19.26300 21416 ft 408 kts 37°
2026-05-07 18:41 -33.79691 19.29094 22108 ft 413 kts 37°
2026-05-07 18:41 -33.78181 19.30506 22458 ft 415 kts 37°
2026-05-07 18:41 -33.75888 19.32649 23002 ft 417 kts 37°
2026-05-07 18:41 -33.73579 19.34806 23478 ft 422 kts 37°
2026-05-07 18:42 -33.71240 19.36991 23938 ft 426 kts 36°
2026-05-07 18:42 -33.68894 19.39179 24365 ft 428 kts 36°
2026-05-07 18:42 -33.66544 19.41392 24787 ft 431 kts 39°
2026-05-07 18:42 -33.64479 19.43973 25189 ft 435 kts 50°
2026-05-07 18:43 -33.62604 19.46845 25617 ft 438 kts 52°
2026-05-07 18:43 -33.60767 19.49775 25977 ft 441 kts 52°
2026-05-07 18:43 -33.58915 19.52734 26361 ft 444 kts 52°
2026-05-07 18:43 -33.57038 19.55695 26797 ft 446 kts 52°
2026-05-07 18:44 -33.55163 19.58611 27197 ft 448 kts 51°
2026-05-07 18:44 -33.53241 19.61566 27574 ft 450 kts 51°
2026-05-07 18:44 -33.51297 19.64536 27949 ft 453 kts 51°
2026-05-07 18:44 -33.49339 19.67517 28307 ft 455 kts 51°
2026-05-07 18:45 -33.47373 19.70505 28678 ft 457 kts 51°
2026-05-07 18:45 -33.45416 19.73477 29035 ft 459 kts 51°
2026-05-07 18:45 -33.43424 19.76503 29380 ft 462 kts 51°
2026-05-07 18:45 -33.41428 19.79533 29719 ft 464 kts 51°
2026-05-07 18:46 -33.39422 19.82577 30058 ft 466 kts 51°
2026-05-07 18:46 -33.37400 19.85642 30388 ft 468 kts 51°
2026-05-07 18:46 -33.35377 19.88707 30625 ft 470 kts 50°
2026-05-07 18:46 -33.33343 19.91787 30825 ft 473 kts 50°
2026-05-07 18:47 -33.31310 19.94862 31102 ft 475 kts 50°
2026-05-07 18:47 -33.29254 19.97952 31478 ft 473 kts 49°
2026-05-07 18:47 -33.27126 20.00946 31828 ft 472 kts 47°
2026-05-07 18:47 -33.24968 20.03832 32111 ft 472 kts 46°
2026-05-07 18:48 -33.22747 20.06740 32403 ft 473 kts 45°
2026-05-07 18:48 -33.20521 20.09639 32736 ft 472 kts 45°
2026-05-07 18:48 -33.18304 20.12536 33054 ft 472 kts 45°
2026-05-07 18:48 -33.16093 20.15437 33352 ft 473 kts 45°
2026-05-07 18:49 -33.13880 20.18353 33607 ft 473 kts 45°
2026-05-07 18:49 -33.11692 20.21245 33894 ft 474 kts 45°
2026-05-07 18:49 -33.09480 20.24172 34200 ft 473 kts 45°
2026-05-07 18:49 -33.07278 20.27087 34439 ft 474 kts 45°
2026-05-07 18:50 -33.05062 20.30020 34659 ft 475 kts 45°
2026-05-07 18:50 -33.02840 20.32956 34846 ft 475 kts 45°
2026-05-07 18:50 -33.00654 20.35842 35061 ft 475 kts 45°
2026-05-07 18:50 -32.98435 20.38769 35211 ft 477 kts 45°
2026-05-07 18:51 -32.96204 20.41708 35208 ft 477 kts 45°
2026-05-07 18:51 -32.91759 20.47559 35213 ft 475 kts 45°
2026-05-07 18:52 -32.87321 20.53391 35224 ft 473 kts 45°
2026-05-07 18:52 -32.82922 20.59161 35224 ft 472 kts 45°
2026-05-07 18:53 -32.78498 20.64954 35222 ft 472 kts 45°
2026-05-07 18:53 -32.74103 20.70701 35230 ft 472 kts 45°
2026-05-07 18:54 -32.69680 20.76476 35214 ft 472 kts 44°
2026-05-07 18:54 -32.65257 20.82241 35225 ft 473 kts 44°
2026-05-07 18:55 -32.60841 20.87987 35233 ft 474 kts 44°
2026-05-07 18:55 -32.56374 20.93790 35235 ft 476 kts 44°
2026-05-07 18:56 -32.51888 20.99610 35229 ft 478 kts 44°
2026-05-07 18:56 -32.47417 21.05400 35227 ft 480 kts 44°
2026-05-07 18:57 -32.42895 21.11248 35222 ft 481 kts 44°
2026-05-07 18:57 -32.38369 21.17093 35213 ft 482 kts 44°
2026-05-07 18:58 -32.33866 21.22898 35214 ft 481 kts 44°
2026-05-07 18:58 -32.29319 21.28750 35209 ft 481 kts 44°
2026-05-07 18:59 -32.24784 21.34576 35215 ft 481 kts 44°
2026-05-07 18:59 -32.20279 21.40356 35212 ft 481 kts 44°
2026-05-07 19:00 -32.15724 21.46191 35210 ft 481 kts 44°
2026-05-07 19:00 -32.11217 21.51955 35214 ft 480 kts 44°
2026-05-07 19:01 -32.06677 21.57752 35211 ft 480 kts 43°
2026-05-07 19:01 -32.02135 21.63541 35209 ft 480 kts 43°
2026-05-07 19:02 -31.97629 21.69276 35210 ft 479 kts 43°
2026-05-07 19:02 -31.93094 21.75039 35209 ft 479 kts 43°
2026-05-07 19:03 -31.88573 21.80777 35204 ft 479 kts 43°
2026-05-07 19:03 -31.84029 21.86533 35206 ft 478 kts 43°
2026-05-07 19:04 -31.79520 21.92236 35213 ft 478 kts 43°
2026-05-07 19:04 -31.74973 21.97979 35213 ft 479 kts 43°
2026-05-07 19:05 -31.70431 22.03708 35190 ft 479 kts 43°
2026-05-07 19:05 -31.65882 22.09434 35211 ft 479 kts 43°
2026-05-07 19:06 -31.61356 22.15124 35211 ft 480 kts 43°
2026-05-07 19:06 -31.54491 22.23738 35214 ft 482 kts 43°
2026-05-07 19:07 -31.49931 22.29449 35214 ft 482 kts 43°
2026-05-07 19:07 -31.45333 22.35199 35214 ft 483 kts 43°
2026-05-07 19:08 -31.40720 22.40958 35214 ft 484 kts 43°
2026-05-07 19:08 -31.36137 22.46671 35200 ft 483 kts 43°
2026-05-07 19:09 -31.31554 22.52377 35209 ft 483 kts 43°
2026-05-07 19:09 -31.26931 22.58123 35209 ft 483 kts 43°
2026-05-07 19:10 -31.22335 22.63826 35206 ft 483 kts 43°
2026-05-07 19:10 -31.17716 22.69549 35207 ft 483 kts 43°
2026-05-07 19:11 -31.13095 22.75267 35201 ft 483 kts 43°
2026-05-07 19:11 -31.08505 22.80939 35201 ft 483 kts 42°
2026-05-07 19:12 -31.03875 22.86651 35170 ft 483 kts 42°
2026-05-07 19:12 -30.99253 22.92326 35190 ft 482 kts 42°
2026-05-07 19:13 -30.94629 22.97985 35189 ft 483 kts 42°
2026-05-07 19:13 -30.90010 23.03633 35195 ft 483 kts 42°
2026-05-07 19:14 -30.85365 23.09308 35190 ft 484 kts 42°
2026-05-07 19:14 -30.80737 23.14954 35183 ft 484 kts 42°
2026-05-07 19:15 -30.76080 23.20628 35185 ft 485 kts 42°
2026-05-07 19:15 -30.71413 23.26305 35175 ft 485 kts 42°
2026-05-07 19:16 -30.66743 23.31978 35193 ft 485 kts 42°
2026-05-07 19:16 -30.62084 23.37627 35182 ft 486 kts 42°
2026-05-07 19:17 -30.57404 23.43295 35191 ft 486 kts 42°
2026-05-07 19:17 -30.52708 23.48973 35188 ft 487 kts 42°
2026-05-07 19:18 -30.48031 23.54620 35187 ft 487 kts 41°
2026-05-07 19:18 -30.43326 23.60292 35193 ft 487 kts 41°
2026-05-07 19:19 -30.38622 23.65955 35202 ft 487 kts 41°
2026-05-07 19:19 -30.33949 23.71572 35181 ft 486 kts 41°
2026-05-07 19:20 -30.29253 23.77209 35192 ft 486 kts 41°
2026-05-07 19:20 -30.24560 23.82833 35192 ft 485 kts 41°
2026-05-07 19:21 -30.19866 23.88451 35195 ft 485 kts 41°
2026-05-07 19:21 -30.15197 23.94030 35195 ft 485 kts 41°
2026-05-07 19:22 -30.10496 23.99639 35188 ft 485 kts 41°
2026-05-07 19:22 -30.05794 24.05242 35195 ft 485 kts 41°
2026-05-07 19:23 -30.01116 24.10807 35186 ft 484 kts 41°
2026-05-07 19:23 -29.96414 24.16394 35183 ft 484 kts 41°
2026-05-07 19:24 -29.91724 24.21958 35192 ft 484 kts 41°
2026-05-07 19:24 -29.87014 24.27538 35190 ft 484 kts 41°
2026-05-07 19:25 -29.82344 24.33062 35193 ft 484 kts 41°
2026-05-07 19:25 -29.77630 24.38630 35188 ft 484 kts 41°
2026-05-07 19:26 -29.72953 24.44147 35193 ft 484 kts 41°
2026-05-07 19:26 -29.68247 24.49690 35162 ft 484 kts 40°
2026-05-07 19:27 -29.63525 24.55243 35185 ft 484 kts 40°
2026-05-07 19:27 -29.58810 24.60781 35191 ft 485 kts 40°
2026-05-07 19:28 -29.54087 24.66320 35199 ft 485 kts 40°
2026-05-07 19:28 -29.50149 24.70933 35190 ft 486 kts 40°
2026-05-07 19:29 -29.45388 24.76352 35192 ft 484 kts 37°
2026-05-07 19:29 -29.40411 24.81552 35195 ft 483 kts 36°
2026-05-07 19:30 -29.35422 24.86696 35164 ft 484 kts 36°
2026-05-07 19:30 -29.30434 24.91889 35187 ft 484 kts 37°
2026-05-07 19:31 -29.27893 24.94548 35187 ft 484 kts 37°
2026-05-07 19:31 -29.23634 24.99012 35195 ft 484 kts 37°
2026-05-07 19:32 -29.18692 25.04190 35191 ft 485 kts 37°
2026-05-07 19:32 -29.13698 25.09412 35187 ft 485 kts 36°
2026-05-07 19:33 -29.08706 25.14623 35195 ft 485 kts 36°
2026-05-07 19:33 -29.03720 25.19821 35190 ft 485 kts 36°
2026-05-07 19:34 -28.98759 25.24987 35187 ft 485 kts 36°
2026-05-07 19:34 -28.93765 25.30177 35189 ft 485 kts 36°
2026-05-07 19:35 -28.88758 25.35375 35196 ft 486 kts 36°
2026-05-07 19:35 -28.83767 25.40549 35191 ft 487 kts 36°
2026-05-07 19:36 -28.78743 25.45751 35195 ft 487 kts 36°
2026-05-07 19:36 -28.73717 25.50948 35193 ft 488 kts 36°
2026-05-07 19:37 -28.68703 25.56126 35193 ft 488 kts 36°
2026-05-07 19:37 -28.63661 25.61325 35194 ft 488 kts 36°
2026-05-07 19:38 -28.58623 25.66514 35190 ft 488 kts 36°
2026-05-07 19:38 -28.53578 25.71702 35195 ft 488 kts 36°
2026-05-07 19:39 -28.48543 25.76874 35197 ft 487 kts 35°
2026-05-07 19:39 -28.43536 25.82009 35198 ft 487 kts 35°
2026-05-07 19:40 -28.38490 25.87177 35199 ft 486 kts 35°
2026-05-07 19:40 -28.33486 25.92296 35190 ft 486 kts 35°
2026-05-07 19:41 -28.28466 25.97425 35194 ft 485 kts 35°
2026-05-07 19:41 -28.23443 26.02549 35202 ft 485 kts 35°
2026-05-07 19:42 -28.18407 26.07679 35202 ft 486 kts 35°
2026-05-07 19:42 -28.13397 26.12776 35201 ft 486 kts 35°
2026-05-07 19:43 -28.08344 26.17910 35203 ft 486 kts 34°
2026-05-07 19:43 -28.03302 26.23027 35200 ft 487 kts 34°
2026-05-07 19:44 -27.98284 26.28114 35192 ft 486 kts 34°
2026-05-07 19:44 -27.93225 26.33234 35192 ft 487 kts 34°
2026-05-07 19:45 -27.88168 26.38345 35204 ft 488 kts 34°
2026-05-07 19:45 -27.83100 26.43461 35196 ft 488 kts 34°
2026-05-07 19:46 -27.78061 26.48542 35197 ft 489 kts 34°
2026-05-07 19:46 -27.72975 26.53663 35201 ft 489 kts 34°
2026-05-07 19:47 -27.67881 26.58785 35160 ft 489 kts 34°
2026-05-07 19:47 -27.62827 26.63863 35194 ft 489 kts 33°
2026-05-07 19:48 -27.57747 26.68957 35202 ft 489 kts 33°
2026-05-07 19:48 -27.52644 26.74069 35206 ft 489 kts 33°
2026-05-07 19:49 -27.47559 26.79155 35203 ft 489 kts 33°
2026-05-07 19:49 -27.42488 26.84223 35198 ft 486 kts 33°
2026-05-07 19:50 -27.39967 26.86744 34923 ft 482 kts 33°
2026-05-07 19:50 -27.37480 26.89231 34591 ft 475 kts 33°
2026-05-07 19:50 -27.35009 26.91698 34221 ft 472 kts 33°
2026-05-07 19:50 -27.32559 26.94140 33750 ft 469 kts 33°
2026-05-07 19:51 -27.30147 26.96541 33362 ft 466 kts 33°
2026-05-07 19:51 -27.27725 26.98949 32978 ft 462 kts 33°
2026-05-07 19:51 -27.25323 27.01338 32591 ft 459 kts 33°
2026-05-07 19:51 -27.22936 27.03709 32213 ft 456 kts 33°
2026-05-07 19:52 -27.20561 27.06066 31833 ft 454 kts 33°
2026-05-07 19:52 -27.18217 27.08393 31456 ft 451 kts 33°
2026-05-07 19:52 -27.15865 27.10725 31084 ft 449 kts 33°
2026-05-07 19:52 -27.13533 27.13037 30706 ft 447 kts 33°
2026-05-07 19:53 -27.11201 27.15346 30314 ft 446 kts 33°
2026-05-07 19:53 -27.08885 27.17639 29898 ft 443 kts 33°
2026-05-07 19:53 -27.06577 27.19924 29485 ft 440 kts 33°
2026-05-07 19:53 -27.04289 27.22189 29080 ft 437 kts 33°
2026-05-07 19:54 -27.02011 27.24442 28691 ft 434 kts 33°
2026-05-07 19:54 -26.99777 27.26651 28273 ft 431 kts 33°
2026-05-07 19:54 -26.97535 27.28865 27926 ft 426 kts 33°
2026-05-07 19:54 -26.95311 27.31061 27549 ft 423 kts 34°
2026-05-07 19:55 -26.93101 27.33241 27177 ft 420 kts 34°
2026-05-07 19:55 -26.90939 27.35372 26810 ft 418 kts 34°
2026-05-07 19:55 -26.88767 27.37512 26438 ft 415 kts 34°
2026-05-07 19:55 -26.86599 27.39647 26071 ft 412 kts 34°
2026-05-07 19:56 -26.84446 27.41766 25713 ft 410 kts 34°
2026-05-07 19:56 -26.82302 27.43874 25332 ft 409 kts 34°
2026-05-07 19:56 -26.80190 27.45949 24967 ft 407 kts 34°
2026-05-07 19:56 -26.78064 27.48039 24590 ft 406 kts 34°
2026-05-07 19:57 -26.75948 27.50117 24232 ft 403 kts 35°
2026-05-07 19:57 -26.73837 27.52189 23854 ft 402 kts 35°
2026-05-07 19:57 -26.71737 27.54250 23452 ft 400 kts 35°
2026-05-07 19:57 -26.69647 27.56301 23057 ft 398 kts 35°
2026-05-07 19:58 -26.67571 27.58337 22676 ft 395 kts 35°
2026-05-07 19:58 -26.65533 27.60335 22288 ft 392 kts 35°
2026-05-07 19:58 -26.63490 27.62336 21949 ft 389 kts 35°
2026-05-07 19:58 -26.61451 27.64332 21599 ft 386 kts 35°
2026-05-07 19:59 -26.59302 27.65963 21226 ft 371 kts 17°
2026-05-07 19:59 -26.56894 27.66963 20940 ft 361 kts 10°
2026-05-07 19:59 -26.54527 27.67788 20620 ft 357 kts
2026-05-07 19:59 -26.52156 27.68579 20315 ft 353 kts
2026-05-07 20:00 -26.49810 27.69355 20015 ft 350 kts
2026-05-07 20:00 -26.47483 27.70121 19751 ft 346 kts
2026-05-07 20:00 -26.45208 27.70864 19465 ft 343 kts
2026-05-07 20:00 -26.42925 27.71609 19198 ft 339 kts
2026-05-07 20:01 -26.40668 27.72343 18939 ft 336 kts
2026-05-07 20:01 -26.38427 27.73070 18662 ft 333 kts
2026-05-07 20:01 -26.36212 27.73785 18400 ft 329 kts
2026-05-07 20:01 -26.34020 27.74494 18161 ft 324 kts
2026-05-07 20:02 -26.31867 27.75193 17915 ft 320 kts
2026-05-07 20:02 -26.29766 27.75878 17698 ft 315 kts
2026-05-07 20:02 -26.27668 27.76564 17494 ft 314 kts
2026-05-07 20:02 -26.25569 27.77250 17285 ft 314 kts
2026-05-07 20:03 -26.23445 27.77939 17093 ft 322 kts
2026-05-07 20:03 -26.21253 27.78640 16887 ft 331 kts
2026-05-07 20:03 -26.19040 27.79344 16694 ft 325 kts
2026-05-07 20:03 -26.16913 27.80031 16524 ft 311 kts
2026-05-07 20:04 -26.14911 27.80691 16426 ft 295 kts
2026-05-07 20:04 -26.13006 27.81337 16325 ft 276 kts 10°
2026-05-07 20:04 -26.11326 27.82285 16192 ft 270 kts 36°
2026-05-07 20:04 -26.10182 27.83947 15974 ft 275 kts 57°
2026-05-07 20:05 -26.09272 27.85835 15604 ft 274 kts 59°
2026-05-07 20:05 -26.08424 27.87679 15245 ft 269 kts 59°
2026-05-07 20:05 -26.07581 27.89527 14871 ft 264 kts 59°
2026-05-07 20:05 -26.06758 27.91336 14520 ft 260 kts 59°
2026-05-07 20:06 -26.05949 27.93114 14175 ft 257 kts 59°
2026-05-07 20:06 -26.05146 27.94874 13805 ft 253 kts 60°
2026-05-07 20:06 -26.04350 27.96607 13389 ft 249 kts 60°
2026-05-07 20:06 -26.03562 27.98302 13005 ft 245 kts 60°
2026-05-07 20:07 -26.02776 27.99972 12634 ft 242 kts 60°
2026-05-07 20:07 -26.01996 28.01615 12256 ft 238 kts 60°
2026-05-07 20:07 -26.01219 28.03228 11884 ft 235 kts 60°
2026-05-07 20:07 -26.00442 28.04823 11522 ft 232 kts 60°
2026-05-07 20:08 -25.99681 28.06366 11168 ft 230 kts 60°
2026-05-07 20:08 -25.98912 28.07911 10802 ft 227 kts 60°
2026-05-07 20:08 -25.98145 28.09436 10451 ft 225 kts 60°
2026-05-07 20:08 -25.97377 28.10944 10099 ft 223 kts 60°
2026-05-07 20:09 -25.96608 28.12437 9711 ft 222 kts 60°
2026-05-07 20:09 -25.95832 28.13929 9356 ft 223 kts 60°
2026-05-07 20:09 -25.95044 28.15425 8980 ft 225 kts 60°
2026-05-07 20:10 -25.93435 28.18435 8247 ft 228 kts 60°
2026-05-07 20:10 -25.92622 28.19931 8033 ft 220 kts 60°
2026-05-07 20:10 -25.91849 28.21341 8021 ft 211 kts 59°
2026-05-07 20:10 -25.91089 28.22726 8010 ft 207 kts 59°
2026-05-07 20:11 -25.90359 28.24052 8022 ft 201 kts 59°
2026-05-07 20:11 -25.89631 28.25382 8039 ft 201 kts 62°
2026-05-07 20:11 -25.89296 28.26854 8012 ft 195 kts 102°
2026-05-07 20:11 -25.89825 28.28153 8033 ft 185 kts 142°
2026-05-07 20:12 -25.90885 28.28895 8044 ft 179 kts 159°
2026-05-07 20:12 -25.92008 28.29490 8031 ft 179 kts 160°
2026-05-07 20:12 -25.93130 28.30072 8020 ft 177 kts 160°
2026-05-07 20:12 -25.94236 28.30645 8008 ft 174 kts 161°
2026-05-07 20:13 -25.95327 28.31145 8003 ft 171 kts 175°
2026-05-07 20:13 -25.96445 28.30975 8027 ft 162 kts 198°
2026-05-07 20:13 -25.97521 28.30677 8024 ft 157 kts 197°
2026-05-07 20:13 -25.98574 28.30370 8027 ft 157 kts 198°
2026-05-07 20:14 -25.99630 28.30049 8017 ft 157 kts 198°
2026-05-07 20:14 -26.00685 28.29723 8014 ft 157 kts 198°
2026-05-07 20:14 -26.01735 28.29397 7941 ft 157 kts 198°
2026-05-07 20:14 -26.02773 28.29073 7742 ft 156 kts 198°
2026-05-07 20:15 -26.03815 28.28749 7543 ft 155 kts 198°
2026-05-07 20:15 -26.04849 28.28427 7340 ft 154 kts 198°
2026-05-07 20:15 -26.05876 28.28107 7147 ft 153 kts 198°
2026-05-07 20:15 -26.06905 28.27787 6950 ft 153 kts 197°
2026-05-07 20:16 -26.07927 28.27469 6767 ft 153 kts 198°
2026-05-07 20:16 -26.08953 28.27149 6542 ft 153 kts 197°
2026-05-07 20:16 -26.09984 28.26828 6317 ft 157 kts 197°
2026-05-07 20:16 -26.11051 28.26497 6032 ft 161 kts 196°
2026-05-07 20:17 -26.11758 28.26273 5926 ft 157 kts 196°
2026-05-07 20:17 -26.13100 28.25860 5615 ft 146 kts 196°
2026-05-07 20:17 -26.13731 28.25660 5524 ft 136 kts 195°
2026-05-07 20:17 -26.14499 28.25425 5505 ft 89 kts 195°
2026-05-07 20:18 -26.14888 28.25304 5507 ft 30 kts 195°
2026-05-07 20:18 -26.15171 28.25217 5510 ft 31 kts 195°
2026-05-07 20:18 -26.15313 28.25173 5513 ft 32 kts 195°
2026-05-07 20:18 -26.15519 28.25109 5515 ft 27 kts 195°
2026-05-07 20:19 -26.15590 28.25067 5516 ft 12 kts 236°
2026-05-07 20:19 -26.15589 28.24983 5514 ft 8 kts 286°
2026-05-07 20:19 -26.15583 28.24961 5513 ft 0 kts 288°
2026-05-07 20:19 -26.15582 28.24956 5513 ft 1 kts 288°
2026-05-07 20:20 -26.15573 28.24927 5513 ft 8 kts 294°
2026-05-07 20:20 -26.15517 28.24908 5512 ft 8 kts
2026-05-07 20:20 -26.15443 28.24926 5513 ft 14 kts 16°
2026-05-07 20:20 -26.15330 28.24961 5513 ft 20 kts 15°
2026-05-07 20:21 -26.15182 28.25007 5515 ft 24 kts 16°
2026-05-07 20:21 -26.15023 28.25056 5512 ft 24 kts 15°
2026-05-07 20:21 -26.14865 28.25105 5509 ft 21 kts 15°
2026-05-07 20:21 -26.14727 28.25148 5510 ft 20 kts 15°
2026-05-07 20:22 -26.14618 28.25181 5509 ft 0 kts 15°
2026-05-07 20:22 -26.14578 28.25193 5508 ft 12 kts 16°
2026-05-07 20:22 -26.14497 28.25213 5509 ft 12 kts 358°
2026-05-07 20:23 -26.14430 28.25164 5511 ft 12 kts 316°
2026-05-07 20:23 -26.14374 28.25104 5518 ft 11 kts 315°
2026-05-07 20:23 -26.14318 28.25042 5528 ft 12 kts 315°
2026-05-07 20:23 -26.14242 28.24959 5530 ft 16 kts 316°
2026-05-07 20:24 -26.14162 28.24873 5530 ft 16 kts 316°
2026-05-07 20:24 -26.14087 28.24792 5530 ft 15 kts 315°
2026-05-07 20:24 -26.14027 28.24725 5530 ft 12 kts 315°
2026-05-07 20:24 -26.13961 28.24654 5530 ft 16 kts 315°
2026-05-07 20:25 -26.13866 28.24551 5531 ft 21 kts 315°
2026-05-07 20:25 -26.13764 28.24441 5538 ft 20 kts 316°
2026-05-07 20:25 -26.13666 28.24335 5538 ft 19 kts 315°
2026-05-07 20:25 -26.13572 28.24232 5543 ft 19 kts 315°
2026-05-07 20:26 -26.13483 28.24134 5546 ft 17 kts 315°
2026-05-07 20:26 -26.13400 28.24045 5548 ft 16 kts 316°
2026-05-07 20:26 -26.13305 28.23942 5546 ft 25 kts 315°
2026-05-07 20:26 -26.13191 28.23823 5546 ft 19 kts 316°
2026-05-07 20:27 -26.13143 28.23729 5544 ft 8 kts 278°
2026-05-07 20:27 -26.13141 28.23702 5544 ft 2 kts 272°
2026-05-07 20:27 -26.13140 28.23689 5544 ft 2 kts 274°
2026-05-07 20:27 -26.13152 28.23683 5547 ft 6 kts 191°
2026-05-07 20:28 -26.13234 28.23669 5546 ft 15 kts 194°
2026-05-07 20:28 -26.13328 28.23637 5550 ft 13 kts 198°
2026-05-07 20:28 -26.13408 28.23610 5550 ft 12 kts 207°
2026-05-07 20:28 -26.13434 28.23525 5548 ft 14 kts 276°
2026-05-07 20:29 -26.13425 28.23432 5546 ft 8 kts 270°
2026-05-07 20:29 -26.13446 28.23378 5546 ft 8 kts 223°
2026-05-07 20:29 -26.13497 28.23366 5548 ft 7 kts 186°
2026-05-07 20:29 -26.13545 28.23359 5547 ft 6 kts 189°
2026-05-07 20:30 -26.13576 28.23355 5548 ft 0 kts 186°
2026-05-07 20:30 -26.13581 28.23355 5547 ft 3 kts 186°
2026-05-07 20:30 -26.13601 28.23341 5547 ft 4 kts 243°
2026-05-07 20:30 -26.13602 28.23310 5546 ft 4 kts 278°
2026-05-07 20:31 -26.13599 28.23284 5547 ft 2 kts 276°
2026-05-07 20:31 -26.13598 28.23270 5549 ft 2 kts 276°
2026-05-07 20:31 -26.13597 28.23264 5546 ft 0 kts 276°
2026-05-07 20:31 -26.13597 28.23262 5546 ft 0 kts 276°